Regional Weather Roundup
Issued by NWS

Home | Current Version | Previous Version | Text Only | Print | Product List | Glossary Off
Versions: 1 2 3 4 5 6 7 8 9 10 11 12 13 14 15 16 17 18 19 20 21 22 23 24 25 26 27 28 29 30 31 32 33 34 35 36 37 38 39 40 41 42 43 44 45 46 47 48 49 50

000
ASUS44 KMEG 031300
RWRTN
TENNESSEE HOURLY STATE WEATHER ROUNDUP
NATIONAL WEATHER SERVICE MEMPHIS TN
800 AM CDT THU SEP 03 2015

TNZ002-004-019-021-049-052-054-088>092-031400-
WEST TENNESSEE

CITY           SKY/WX    TMP DP  RH WIND       PRES   REMARKS
MEMPHIS INTL   MOSUNNY   77  72  84 CALM      30.04R
NWS MEMPHIS      N/A     73 N/A N/A MISG        N/A
JACKSON        SUNNY     74  71  91 CALM      30.05R
DYERSBURG      SUNNY     73  72  94 CALM      30.05S
UNION CITY     SUNNY    N/A N/A N/A CALM      30.04R
PARIS          SUNNY     72  68  88 CALM      30.06R
LEXINGTON      SUNNY     72  72 100 CALM      30.05R
$$

TNZ008-025-027-028-033-062-065-066-031400-
NORTH MIDDLE TENNESSEE

CITY           SKY/WX    TMP DP  RH WIND       PRES   REMARKS
NASHVILLE      MOSUNNY   78  71  79 CALM      30.05R
CLARKSVILLE    SUNNY     74  68  81 CALM      30.05R
COOKEVILLE     SUNNY     72  70  94 CALM      30.07R
CROSSVILLE     PTSUNNY   73  67  81 CALM      30.11R
$$

TNZ061-075-076-078-094-096-097-031400-
SOUTH MIDDLE TENNESSEE

CITY           SKY/WX    TMP DP  RH WIND       PRES   REMARKS
FAYETTEVILLE   SUNNY     72  72 100 CALM      30.06S
TULLAHOMA      SUNNY     75  70  83 CALM      30.08R
WINCHESTER     MOSUNNY   72  70  94 CALM      30.07R
COLUMBIA       SUNNY     75  75 100 CALM      30.04R
SHELBYVILLE    SUNNY     72  72 100 CALM      30.07R
$$

TNZ017-018-042-046-047-031400-
NORTHEAST TENNESSEE

CITY           SKY/WX    TMP DP  RH WIND       PRES   REMARKS
TRI CITIES     MOSUNNY   69  66  90 CALM      30.09R
ELIZABETHTON   SUNNY     66  63  88 CALM      30.10R
$$

TNZ012-013-036-069-073-074-031400-
CENTRAL EAST TENNESSEE

CITY           SKY/WX    TMP DP  RH WIND       PRES   REMARKS
KNOXVILLE      CLOUDY    74  68  81 CALM      30.04S
OAK RIDGE      PTSUNNY   73  68  84 CALM      30.07R
GATLINBURG     SUNNY     70  64  83 CALM      30.06R
$$

TNZ083-085-099-031400-
SOUTHEAST TENNESSEE

CITY           SKY/WX    TMP DP  RH WIND       PRES   REMARKS
CHATTANOOGA    CLOUDY    76  71  85 CALM      30.04R
$$

SKY/WX REPORTED AS FAIR MEANS FEW OR NO CLOUDS BELOW
12 THOUSAND FEET.




USA.gov is the U.S. government's official web portal to all federal, state and local government web resources and services.